Location: Keewatin
(47.4004°N, 93.0827°W)
Time: 00:10:13
(UTC+00:00)

ZACube-1 - Pass Details

Date: 01 March 2020
Orbit: 584 x 667 km, 97.6° (Epoch: 01 April)

Event Time Altitude Azimuth Distance (km) Brightness Sun altitude
Rises 00:23:19 0° 203° (SSW) 2,935 ? -5.3°
Reaches altitude 10° 00:25:58 10° 220° (SW) 2,045 ? -5.7°
Maximum altitude 00:29:21 21° 269° (W) 1,473 ? -6.3°
Drops below altitude 10° 00:32:48 10° 318° (NW) 2,087 ? -6.9°
Sets 00:35:33 0° 335° (NNW) 3,013 ? -7.3°
